Radiation Dose at Monitoring Post of Fukushima Daini Nuclear Power Station
Date,Time,MP-1(microSv/h),MP-2(microSv/h),MP-3(microSv/h),MP-4(microSv/h),MP-5(microSv/h),MP-6(microSv/h),MP-7(microSv/h),Wind Direction,Wind Velocity(m/s),Rain
2015/04/19,00:00,0.536,0.329,0.563,0.524,0.556,0.250,0.223,south-southwest,2.8,No
2015/04/19,00:10,0.540,0.332,0.567,0.524,0.553,0.250,0.222,south,3.2,No
2015/04/19,00:20,0.538,0.331,0.564,0.525,0.554,0.250,0.223,south-southwest,2.7,No
2015/04/19,00:30,0.537,0.330,0.564,0.524,0.555,0.251,0.221,south-southwest,3.0,No
2015/04/19,00:40,0.540,0.332,0.564,0.528,0.553,0.250,0.223,south-southwest,3.9,No
2015/04/19,00:50,0.536,0.330,0.563,0.525,0.555,0.250,0.223,south,4.5,No
2015/04/19,01:00,0.538,0.329,0.566,0.525,0.554,0.250,0.223,south,4.2,No
2015/04/19,01:10,0.540,0.331,0.564,0.526,0.554,0.250,0.223,south-southwest,4.9,No
2015/04/19,01:20,0.538,0.331,0.564,0.523,0.554,0.250,0.224,south-southwest,4.5,No
2015/04/19,01:30,0.541,0.330,0.566,0.526,0.554,0.250,0.222,south-southwest,3.8,No
2015/04/19,01:40,0.539,0.332,0.562,0.525,0.554,0.250,0.223,south-southwest,3.6,No
2015/04/19,01:50,0.540,0.331,0.566,0.525,0.554,0.251,0.222,southwest,3.1,No
2015/04/19,02:00,0.539,0.330,0.563,0.526,0.555,0.251,0.224,south-southwest,3.0,No
2015/04/19,02:10,0.535,0.332,0.564,0.525,0.556,0.249,0.222,south-southwest,1.9,No
2015/04/19,02:20,0.540,0.331,0.565,0.524,0.554,0.251,0.223,south-southwest,2.3,No
2015/04/19,02:30,0.538,0.330,0.563,0.527,0.554,0.250,0.222,south-southwest,2.1,No
2015/04/19,02:40,0.538,0.330,0.566,0.524,0.555,0.251,0.223,south-southwest,2.7,No
2015/04/19,02:50,0.540,0.331,0.563,0.525,0.552,0.251,0.223,south,1.6,No
2015/04/19,03:00,0.537,0.330,0.564,0.525,0.555,0.250,0.221,south,2.1,No
2015/04/19,03:10,0.539,0.331,0.565,0.524,0.554,0.250,0.222,south,1.8,No
2015/04/19,03:20,0.537,0.333,0.563,0.525,0.552,0.250,0.223,south-southwest,1.6,No
2015/04/19,03:30,0.536,0.330,0.565,0.525,0.554,0.252,0.221,south-southwest,1.4,No
2015/04/19,03:40,0.540,0.330,0.565,0.523,0.552,0.249,0.222,south-southwest,1.3,No
2015/04/19,03:50,0.536,0.331,0.562,0.525,0.555,0.251,0.223,south,1.3,No
2015/04/19,04:00,0.539,0.329,0.566,0.524,0.555,0.251,0.222,south-southwest,1.2,No
2015/04/19,04:10,0.539,0.330,0.565,0.523,0.553,0.251,0.224,south-southwest,1.5,No
2015/04/19,04:20,0.537,0.330,0.564,0.525,0.555,0.250,0.222,south-southwest,1.7,No
2015/04/19,04:30,0.540,0.331,0.566,0.525,0.554,0.251,0.223,south-southwest,3.0,No
2015/04/19,04:40,0.536,0.329,0.564,0.524,0.554,0.250,0.223,south-southwest,3.5,No
2015/04/19,04:50,0.538,0.330,0.564,0.525,0.555,0.250,0.221,south-southwest,3.3,No
2015/04/19,05:00,0.538,0.332,0.566,0.524,0.553,0.250,0.222,south-southwest,3.5,No
2015/04/19,05:10,0.537,0.329,0.564,0.523,0.554,0.250,0.224,south-southwest,3.1,No
2015/04/19,05:20,0.540,0.331,0.562,0.525,0.555,0.250,0.222,south-southwest,3.4,No
2015/04/19,05:30,0.539,0.331,0.565,0.525,0.554,0.251,0.223,south-southwest,2.6,No
2015/04/19,05:40,0.537,0.330,0.564,0.524,0.555,0.250,0.223,south-southwest,2.7,No
2015/04/19,05:50,0.540,0.330,0.565,0.525,0.556,0.250,0.222,south-southwest,2.5,No
2015/04/19,06:00,0.535,0.332,0.566,0.523,0.555,0.250,0.223,south-southwest,2.1,No
2015/04/19,06:10,0.536,0.330,0.564,0.524,0.558,0.251,0.223,south-southwest,2.8,No
2015/04/19,06:20,0.541,0.331,0.563,0.526,0.554,0.251,0.222,south-southwest,2.7,No
2015/04/19,06:30,0.538,0.332,0.565,0.524,0.554,0.250,0.222,southwest,1.6,No
2015/04/19,06:40,0.539,0.330,0.561,0.525,0.556,0.250,0.223,south-southwest,0.8,No
2015/04/19,06:50,0.538,0.333,0.565,0.526,0.554,0.250,0.223,south,0.8,No
2015/04/19,07:00,0.536,0.331,0.565,0.525,0.558,0.251,0.222,south,1.1,No
2015/04/19,07:10,0.541,0.331,0.563,0.525,0.554,0.251,0.223,south,0.8,No
2015/04/19,07:20,0.536,0.331,0.566,0.525,0.557,0.250,0.223,south,0.8,No
2015/04/19,07:30,0.540,0.331,0.563,0.525,0.554,0.251,0.223,-,CALM,No
2015/04/19,07:40,0.538,0.332,0.566,0.527,0.556,0.249,0.223,south-southwest,0.8,No
2015/04/19,07:50,0.539,0.330,0.563,0.524,0.556,0.251,0.223,south,1.1,No
2015/04/19,08:00,0.539,0.331,0.563,0.526,0.554,0.251,0.223,south,1.4,No
2015/04/19,08:10,0.536,0.333,0.568,0.523,0.560,0.250,0.223,southwest,2.7,No
2015/04/19,08:20,0.539,0.331,0.563,0.526,0.554,0.251,0.223,south-southwest,2.9,No
2015/04/19,08:30,0.536,0.333,0.565,0.525,0.560,0.251,0.223,south,2.4,No
2015/04/19,08:40,0.540,0.332,0.563,0.523,0.555,0.251,0.224,south-southeast,2.6,No
2015/04/19,08:50,0.536,0.330,0.566,0.526,0.558,0.250,0.222,southeast,2.5,No
2015/04/19,09:00,0.540,0.333,0.564,0.523,0.555,0.250,0.223,south-southeast,2.5,No
2015/04/19,09:10,0.539,0.330,0.564,0.527,0.555,0.251,0.224,south,2.2,No
2015/04/19,09:20,0.540,0.332,0.564,0.523,0.556,0.250,0.223,south-southwest,2.8,No
2015/04/19,09:30,0.536,0.331,0.561,0.526,0.555,0.251,0.223,south-southwest,2.6,No
2015/04/19,09:40,0.538,0.333,0.565,0.523,0.555,0.250,0.224,south,3.1,No
2015/04/19,09:50,0.539,0.331,0.561,0.527,0.555,0.251,0.223,south,4.1,No
2015/04/19,10:00,0.539,0.332,0.565,0.523,0.555,0.251,0.224,south,4.7,No
2015/04/19,10:10,0.541,0.330,0.562,0.528,0.556,0.251,0.223,south,5.2,No
2015/04/19,10:20,0.538,0.331,0.565,0.521,0.555,0.249,0.223,south,5.0,No
2015/04/19,10:30,0.540,0.330,0.562,0.529,0.558,0.251,0.222,south,4.1,No
2015/04/19,10:40,0.537,0.331,0.564,0.523,0.555,0.250,0.222,south,5.0,No
2015/04/19,10:50,0.539,0.331,0.564,0.526,0.556,0.252,0.221,south,6.0,No
2015/04/19,11:00,0.536,0.332,0.563,0.523,0.551,0.250,0.223,south,4.8,No
2015/04/19,11:10,0.538,0.330,0.564,0.524,0.558,0.250,0.223,south,4.4,No
2015/04/19,11:20,0.537,0.331,0.560,0.526,0.554,0.251,0.222,south,4.9,No
2015/04/19,11:30,0.531,0.332,0.565,0.520,0.548,0.248,0.223,south,5.5,No
2015/04/19,11:40,0.539,0.328,0.561,0.525,0.557,0.250,0.222,south,5.8,No
2015/04/19,11:50,0.538,0.331,0.560,0.524,0.556,0.249,0.222,south,7.0,No
2015/04/19,12:00,0.535,0.331,0.566,0.521,0.549,0.250,0.223,south,7.7,No
2015/04/19,12:10,0.541,0.329,0.561,0.527,0.559,0.250,0.223,south,7.3,No
2015/04/19,12:20,0.535,0.333,0.566,0.523,0.555,0.250,0.223,south,7.9,No
2015/04/19,12:30,0.540,0.330,0.563,0.529,0.558,0.250,0.223,south,7.7,No
2015/04/19,12:40,0.537,0.334,0.563,0.524,0.559,0.250,0.223,south,6.6,No
2015/04/19,12:50,0.541,0.332,0.568,0.526,0.553,0.252,0.222,south,6.7,No
2015/04/19,13:00,0.539,0.331,0.562,0.525,0.561,0.250,0.223,south,6.1,No
2015/04/19,13:10,0.539,0.331,0.568,0.526,0.553,0.252,0.224,south,7.5,No
2015/04/19,13:20,0.541,0.333,0.563,0.527,0.560,0.249,0.222,south,7.3,No
2015/04/19,13:30,0.538,0.332,0.566,0.525,0.555,0.252,0.224,south,8.1,No
2015/04/19,13:40,0.541,0.332,0.563,0.527,0.561,0.250,0.222,south,8.0,No
2015/04/19,13:50,0.537,0.331,0.567,0.527,0.555,0.252,0.223,south,7.2,No
2015/04/19,14:00,0.541,0.332,0.564,0.527,0.560,0.250,0.222,south,7.3,No
2015/04/19,14:10,0.538,0.332,0.567,0.524,0.555,0.251,0.223,south,6.8,No
2015/04/19,14:20,0.541,0.331,0.563,0.526,0.558,0.250,0.223,south-southwest,6.7,No
2015/04/19,14:30,0.536,0.331,0.565,0.525,0.556,0.251,0.222,south-southwest,8.2,No
2015/04/19,14:40,0.543,0.332,0.565,0.528,0.558,0.251,0.224,south-southwest,8.1,No
2015/04/19,14:50,0.536,0.331,0.564,0.525,0.556,0.250,0.223,south-southwest,7.6,No
2015/04/19,15:00,0.544,0.330,0.567,0.528,0.556,0.250,0.224,south-southwest,7.2,No
2015/04/19,15:10,0.536,0.333,0.560,0.526,0.557,0.251,0.223,south,6.3,No
2015/04/19,15:20,0.541,0.330,0.568,0.530,0.553,0.250,0.223,south,6.4,No
2015/04/19,15:30,0.539,0.332,0.562,0.521,0.558,0.250,0.223,south,6.7,No
2015/04/19,15:40,0.536,0.329,0.566,0.528,0.553,0.252,0.222,south-southwest,6.3,No
2015/04/19,15:50,0.542,0.332,0.566,0.523,0.556,0.249,0.222,south,6.9,No
2015/04/19,16:00,0.535,0.330,0.563,0.525,0.555,0.251,0.223,south-southwest,7.5,No
2015/04/19,16:10,0.541,0.332,0.567,0.527,0.558,0.250,0.224,south-southwest,6.9,No
2015/04/19,16:20,0.538,0.332,0.562,0.525,0.555,0.251,0.222,south-southwest,7.3,No
2015/04/19,16:30,0.542,0.333,0.568,0.525,0.557,0.249,0.223,south,7.3,No
2015/04/19,16:40,0.535,0.331,0.564,0.525,0.556,0.253,0.222,south,6.9,No
2015/04/19,16:50,0.542,0.332,0.570,0.527,0.558,0.251,0.223,south,6.9,No
2015/04/19,17:00,0.536,0.331,0.564,0.527,0.556,0.251,0.224,south-southwest,7.8,No
2015/04/19,17:10,0.541,0.333,0.568,0.526,0.559,0.251,0.223,south-southwest,7.3,No
2015/04/19,17:20,0.538,0.332,0.565,0.527,0.558,0.251,0.223,south-southwest,7.3,No
2015/04/19,17:30,0.542,0.332,0.567,0.525,0.559,0.251,0.223,south-southwest,6.7,No
2015/04/19,17:40,0.538,0.329,0.565,0.528,0.556,0.251,0.222,south-southwest,7.5,No
2015/04/19,17:50,0.541,0.333,0.566,0.525,0.558,0.251,0.223,south-southwest,7.8,No
2015/04/19,18:00,0.538,0.330,0.565,0.528,0.559,0.251,0.224,south-southwest,7.7,Yes
2015/04/19,18:10,0.541,0.333,0.565,0.528,0.558,0.252,0.222,south-southwest,8.0,Yes
2015/04/19,18:20,0.537,0.332,0.565,0.526,0.558,0.253,0.224,south-southwest,8.9,Yes
2015/04/19,18:30,0.543,0.333,0.566,0.527,0.557,0.252,0.224,south-southwest,8.9,Yes
2015/04/19,18:40,0.540,0.331,0.567,0.530,0.556,0.252,0.224,south-southwest,8.1,Yes
2015/04/19,18:50,0.541,0.335,0.569,0.527,0.560,0.253,0.224,southwest,9.0,Yes
2015/04/19,19:00,0.539,0.333,0.568,0.532,0.558,0.253,0.224,southwest,7.5,Yes
2015/04/19,19:10,0.543,0.334,0.571,0.526,0.562,0.252,0.224,southwest,6.2,Yes
2015/04/19,19:20,0.539,0.333,0.565,0.530,0.557,0.253,0.225,southwest,6.0,Yes
2015/04/19,19:30,0.544,0.332,0.569,0.528,0.562,0.253,0.224,southwest,7.5,Yes
2015/04/19,19:40,0.539,0.335,0.563,0.531,0.558,0.252,0.225,southwest,7.6,Yes
2015/04/19,19:50,0.542,0.331,0.569,0.529,0.558,0.253,0.225,southwest,7.1,Yes
2015/04/19,20:00,0.541,0.335,0.565,0.528,0.559,0.253,0.224,southwest,7.5,Yes
2015/04/19,20:10,0.539,0.331,0.570,0.530,0.557,0.253,0.225,southwest,8.3,Yes
2015/04/19,20:20,0.540,0.334,0.567,0.525,0.561,0.252,0.223,southwest,9.0,Yes
2015/04/19,20:30,0.537,0.332,0.567,0.530,0.556,0.252,0.224,southwest,8.5,No
2015/04/19,20:40,0.540,0.332,0.565,0.526,0.561,0.252,0.224,southwest,8.4,No
2015/04/19,20:50,0.539,0.333,0.564,0.528,0.555,0.251,0.225,southwest,7.0,Yes
2015/04/19,21:00,0.543,0.329,0.567,0.525,0.558,0.252,0.223,southwest,7.1,Yes
2015/04/19,21:10,0.539,0.333,0.563,0.526,0.553,0.251,0.224,southwest,6.2,Yes
2015/04/19,21:20,0.541,0.332,0.567,0.525,0.558,0.252,0.224,southwest,5.5,Yes
2015/04/19,21:30,0.538,0.332,0.561,0.526,0.556,0.252,0.224,south-southwest,5.0,No
2015/04/19,21:40,0.540,0.331,0.569,0.528,0.557,0.251,0.224,south-southwest,4.9,Yes
2015/04/19,21:50,0.539,0.333,0.564,0.525,0.558,0.251,0.224,southwest,4.4,Yes
2015/04/19,22:00,0.540,0.332,0.567,0.530,0.557,0.251,0.223,south-southwest,4.6,Yes
2015/04/19,22:10,0.539,0.331,0.564,0.525,0.560,0.251,0.223,south-southwest,3.9,Yes
2015/04/19,22:20,0.538,0.335,0.567,0.530,0.555,0.252,0.224,south-southwest,4.2,Yes
2015/04/19,22:30,0.541,0.331,0.565,0.525,0.560,0.253,0.225,south-southwest,4.0,Yes
2015/04/19,22:40,0.537,0.333,0.565,0.528,0.556,0.252,0.224,south-southwest,4.6,Yes
2015/04/19,22:50,0.542,0.333,0.566,0.527,0.559,0.252,0.224,south-southwest,4.7,Yes
2015/04/19,23:00,0.537,0.331,0.565,0.524,0.555,0.252,0.223,south-southwest,5.0,No
2015/04/19,23:10,0.542,0.332,0.569,0.529,0.559,0.251,0.224,south-southwest,4.2,Yes
2015/04/19,23:20,0.539,0.331,0.564,0.526,0.557,0.252,0.225,southwest,2.2,Yes
2015/04/19,23:30,0.540,0.332,0.567,0.531,0.560,0.252,0.225,west-northwest,2.2,Yes
2015/04/19,23:40,0.539,0.332,0.564,0.524,0.558,0.253,0.226,north-northwest,2.5,Yes
2015/04/19,23:50,0.539,0.333,0.569,0.530,0.557,0.252,0.226,north,3.1,Yes
